FW2254 Weather Reports


Display with metric or nautical units.
time (UTC)temp
F
wind
direction
speed
MPH
gust
MPH
rain 1hr
in
rain 24hr
in
rain mn
in
humidity
%
barometer
mb
20260905061554 80 28 0.0 0.0 0.00 0.00 0.00 85 1010.9
20260905060055 80 28 0.0 0.0 0.00 0.00 0.00 84 1010.7
20260905054552 80 28 0.0 0.0 0.00 0.00 0.00 84 1010.5
20260905053046 80 28 0.0 0.0 0.00 0.00 0.00 83 1010.7
20260905051550 81 28 0.0 0.0 0.00 0.00 0.00 83 1010.4
20260905050040 81 28 0.0 0.0 0.00 0.00 0.00 82 1010.5
20260905044541 81 28 0.0 0.0 0.00 0.00 0.00 82 1010.5
20260905043036 81 28 0.0 0.0 0.00 0.00 0.00 83 1010.6
20260905041559 82 28 0.0 0.0 0.00 0.00 0.00 82 1010.6
20260905040058 82 28 0.0 0.0 0.00 0.00 0.00 81 1010.4
20260905034600 83 28 0.0 0.0 0.00 0.00 0.00 80 1010.5
20260905033055 83 28 0.0 0.0 0.00 0.00 0.00 80 1010.7
20260905031554 83 28 0.0 0.0 0.00 0.00 0.00 79 1010.7
20260905030057 84 28 0.0 0.0 0.00 0.00 0.00 79 1010.6
20260905024551 84 28 0.0 0.0 0.00 0.00 0.00 79 1010.4
20260905023051 84 28 0.0 0.0 0.00 0.00 0.00 80 1010.2
20260905021552 84 28 0.0 0.0 0.00 0.00 0.00 77 1010.0
20260905020053 84 28 0.0 0.0 0.00 0.00 0.00 76 1009.9
20260905014547 85 28 0.0 0.0 0.00 0.00 0.00 74 1009.5
20260905013047 85 28 0.0 0.0 0.00 0.00 0.00 73 1009.2
20260905011609 86 28 0.0 0.0 0.00 0.00 0.00 72 1009.3
20260905010047 87 28 0.0 0.0 0.00 0.00 0.00 71 1009.1
20260905004545 88 28 0.0 0.0 0.00 0.00 0.00 68 1009.1
20260905003050 89 28 0.0 0.0 0.00 0.00 0.00 67 1009.0
20260905001546 90 28 0.0 0.0 0.00 0.00 0.00 65 1008.9
20260905000044 91 28 0.0 0.0 0.00 0.00 0.00 63 1009.0
20260904234512 92 28 0.0 4.0 0.00 0.00 0.00 60 1008.9
20260904233031 95 28 1.0 4.0 0.00 0.00 0.00 56 1009.0
20260904231509 96 28 0.0 1.0 0.00 0.00 0.00 54 1008.8
20260904230023 96 28 0.0 3.0 0.00 0.00 0.00 54 1008.6
20260904224507 96 28 0.0 4.0 0.00 0.00 0.00 53 1008.7
20260904223007 96 28 1.0 3.0 0.00 0.00 0.00 53 1008.7
20260904221505 96 28 0.0 1.0 0.00 0.00 0.00 53 1008.7
20260904220007 96 28 0.0 2.0 0.00 0.00 0.00 53 1008.7
20260904214504 96 28 0.0 4.0 0.00 0.00 0.00 52 1008.8
20260904213002 97 28 0.0 2.0 0.00 0.00 0.00 53 1009.1
20260904211558 97 28 0.0 3.0 0.00 0.00 0.00 52 1009.3
20260904210100 97 28 0.0 1.0 0.00 0.00 0.00 51 1009.4
20260904204554 97 28 0.0 3.0 0.00 0.00 0.00 51 1009.6
20260904203051 98 28 0.0 3.0 0.00 0.00 0.00 50 1009.8
20260904201606 97 28 0.0 4.0 0.00 0.00 0.00 51 1010.0
20260904200050 99 28 0.0 2.0 0.00 0.00 0.00 48 1010.5
20260904194546 99 28 0.0 2.0 0.00 0.00 0.00 49 1010.5
20260904193046 99 28 0.0 3.0 0.00 0.00 0.00 50 1010.7
20260904191541 100 28 0.0 4.0 0.00 0.00 0.00 50 1010.8
20260904190037 98 28 0.0 4.0 0.00 0.00 0.00 52 1011.1
20260904184541 98 28 0.0 2.0 0.00 0.00 0.00 52 1011.2
20260904183033 97 28 0.0 3.0 0.00 0.00 0.00 54 1011.4
20260904181536 97 28 0.0 4.0 0.00 0.00 0.00 56 1011.4
20260904180028 95 28 0.0 2.0 0.00 0.00 0.00 58 1011.7
20260904174528 96 28 0.0 3.0 0.00 0.00 0.00 56 1012.0
20260904173025 94 28 0.0 3.0 0.00 0.00 0.00 59 1012.3
20260904171535 95 28 1.0 4.0 0.00 0.00 0.00 60 1012.5
20260904164548 90 28 0.0 3.0 0.00 0.01 0.00 68 1012.7
20260904163047 91 28 0.0 2.0 0.00 0.01 0.00 65 1012.7
20260904161542 89 28 0.0 2.0 0.00 0.01 0.00 69 1012.8
20260904160039 88 28 0.0 3.0 0.00 0.01 0.00 71 1012.9
20260904154537 87 28 0.0 3.0 0.00 0.01 0.00 75 1013.0
20260904153034 86 28 0.0 4.0 0.00 0.01 0.00 78 1012.9
20260904151526 85 28 0.0 2.0 0.00 0.01 0.00 80 1012.9
20260904150036 84 28 0.0 2.0 0.00 0.01 0.00 84 1012.9
20260904144519 82 27 0.0 1.0 0.00 0.01 0.00 87 1012.9
20260904143027 82 28 0.0 2.0 0.00 0.01 0.00 90 1012.9
20260904141510 80 27 0.0 1.0 0.00 0.01 0.00 92 1012.8
20260904140006 79 28 0.0 0.0 0.00 0.01 0.00 93 1012.9
20260904134503 78 27 0.0 0.0 0.00 0.01 0.00 95 1012.8
20260904133101 77 27 0.0 1.0 0.00 0.01 0.00 95 1012.7
20260904131558 76 27 0.0 1.0 0.00 0.01 0.00 96 1012.7
20260904130058 75 27 0.0 0.0 0.00 0.01 0.00 96 1012.6
20260904124603 74 28 0.0 0.0 0.00 0.01 0.00 96 1012.5
20260904123053 74 28 0.0 0.0 0.00 0.01 0.00 96 1012.3
20260904121552 74 28 0.0 0.0 0.00 0.01 0.00 96 1012.2
20260904120150 74 28 0.0 0.0 0.00 0.01 0.00 96 1012.1
20260904114549 74 28 0.0 0.0 0.00 0.01 0.00 96 1012.0
20260904113051 74 28 0.0 0.0 0.00 0.01 0.00 96 1012.0
20260904111546 74 28 0.0 0.0 0.00 0.01 0.00 96 1012.0
20260904110044 75 28 0.0 0.0 0.00 0.01 0.00 96 1012.0
20260904104543 75 28 0.0 0.0 0.00 0.01 0.00 96 1011.9
20260904103043 75 28 0.0 0.0 0.00 0.01 0.00 96 1011.9
20260904101538 75 28 0.0 0.0 0.00 0.01 0.00 95 1011.8
20260904100038 75 28 0.0 0.0 0.00 0.04 0.00 95 1011.6
20260904094545 75 28 0.0 0.0 0.00 0.04 0.00 95 1011.4
20260904093036 75 28 0.0 0.0 0.00 0.04 0.00 95 1011.5
20260904091532 75 28 0.0 0.0 0.00 0.04 0.00 95 1011.2
20260904090031 75 28 0.0 0.0 0.00 0.05 0.00 95 1011.1
20260904084530 75 28 0.0 0.0 0.00 0.05 0.00 95 1011.1
20260904083029 75 28 0.0 0.0 0.00 0.05 0.00 95 1010.9
20260904081526 75 28 0.0 0.0 0.00 0.05 0.00 95 1010.8
20260904080025 75 28 0.0 0.0 0.00 0.14 0.00 94 1010.9
20260904074534 75 28 0.0 0.0 0.00 0.14 0.00 94 1010.9
20260904073021 76 28 0.0 0.0 0.00 0.14 0.00 94 1011.0
20260904071526 76 28 0.0 0.0 0.00 0.14 0.00 93 1011.1
20260904070019 76 28 0.0 0.0 0.00 0.27 0.00 93 1011.1
20260904064520 76 28 0.0 0.0 0.00 0.27 0.00 92 1011.2
20260904063015 76 28 0.0 0.0 0.00 0.27 0.00 92 1011.1